Flag for Norway Weather past 2 weeks in Skien, Norway

Now
54 °F

Sprinkles. Broken clouds.


Feels Like: 52 °F
Forecast: 43 / 63 °F
Wind: 6 mph from North

Location: Skien-Geiteryggen

Current Time: May 26, 2015 at 12:15:57 PM

Latest Report: May 26, 2015 at 11:50 AM


Visibility: N/A

Pressure: 29.77 "Hg

Humidity: 58%

Dew point: 39 °F

Location of SkienLocation

Historic Weather in Skien — Graph

°F

Skien temperature yesterday

Maximum temperature yesterday: 57 °F (at 1:20 PM)
Minimum temperature yesterday: 55 °F (at 12:50 PM)
Average temperature yesterday: 56 °F

Past Weeks' High & Low Weather Summary

 TemperatureHumidityPressure
High61 °F (May 13, 3:20 PM)100% (May 11, 6:50 PM)30.01 "Hg (May 11, 6:50 PM)
Low36 °F (May 18, 6:20 AM)32% (May 15, 10:50 AM)29.39 "Hg (May 19, 6:50 AM)
Average50 °F72%29.76 "Hg
* Reported May 11 10:50 AM — May 26 10:50 AM, Skien, Weather by CustomWeather, © 2015

Note: Actual official high and low records may vary slightly from our data, if they occured in-between our weather recording intervals... More about our weather records

Advertising

Skien weather history for previous 24 hours

 ConditionsComfort  
Time TempWeatherWind HumidityBarometerVisibility
10:50 AM
Tue, May 26
54 °FSunny.7 mph54%29.77 "Hg10 mi
9:50 AM52 °FScattered clouds.6 mph67%29.77 "HgN/A
9:20 AM48 °FSunny.5 mph76%29.77 "Hg10 mi
7:50 AM48 °FScattered clouds.6 mph71%29.77 "HgN/A
6:50 AM46 °FPartly sunny.5 mph76%29.77 "HgN/A
6:20 AM46 °FPartly sunny.5 mph76%29.77 "HgN/A
5:50 AM45 °FPartly sunny.5 mph81%29.77 "HgN/A
7:50 PM
Mon, May 25
55 °FSunny.7 mph55%29.71 "Hg10 mi
6:50 PM55 °FSunny.8 mph59%29.71 "Hg10 mi
5:50 PM55 °FSunny.9 mph51%29.71 "Hg10 mi
4:50 PM55 °FSunny.9 mph51%29.71 "Hg10 mi
3:50 PM55 °FSunny.6 mph47%29.71 "Hg10 mi
2:50 PM57 °FScattered showers. Partly sunny.13 mph51%29.71 "HgN/A
1:50 PM57 °FScattered showers. Partly sunny.6 mph41%29.71 "HgN/A
1:20 PM57 °FScattered showers. Scattered clouds.6 mph41%29.71 "HgN/A
12:50 PM55 °FScattered showers. Scattered clouds.7 mph44%29.71 "HgN/A
Weather by CustomWeather, © 2015

See weather overviewHow to use our weather pages